TDRS 7

Last updated on Sun Apr 12 2026 00:02:44 GMT+0000 (Coordinated Universal Time)

1 23613U 95035B 26100.78155243 -.00000230 00000+0 00000+0 0 9995 2 23613 13.4057 348.6548 0009562 56.7543 163.8225 1.00266675112573
UTC large
Height (km)
Speed (km/s)
/
Latitude / Longitude
Inclination (degrees)
Orbital Period (minutes)
Azimuth
Elevation
Range (km)
Doppler Factor

Next 0 passes for location: London (51.5072 / 0.1276)

Sorry there are no passes over London.
TDRS 7